Skip Page Navigation
NASA JPL Caltech
NASA Logo - Jet Propulsion Laboratory + View the NASA Portal
+ Center for Near-Earth Object Studies
JPL Home Earth Solar System Stars & Galaxies Technology
JPL Solar System Dynamics
BODIES ORBITS EPHEMERIDES TOOLS PHYSICAL DATA DISCOVERY FAQ SITE MAP
JPL Small-Body Database Browser
Search: [ help ]  
344665 (2003 SH106)
Classification: Main-belt Asteroid          SPK-ID: 2344665
Ephemeris | Orbit Diagram | Orbital Elements | Mission Design | Physical Parameters | Discovery Circumstances ]

[ show orbit diagram ]
Orbital Elements at Epoch 2459000.5 (2020-May-31.0) TDB
Reference: JPL 7 (heliocentric ecliptic J2000)
 Element Value Uncertainty (1-sigma)   Units 
e .2353260533733399 7.668e-08  
a 2.705481006867688 2.3105e-08 au
q 2.068810839044985 2.1192e-07 au
i 10.34191312602025 8.6254e-06 deg
node 233.1013980778389 4.0084e-05 deg
peri 130.6016494575443 4.7448e-05 deg
M 269.9067485780832 2.1529e-05 deg
tp 2459407.275624896769
(2021-Jul-11.77562490)
0.00010056 TDB
period 1625.418359884089
4.45
2.0821e-05
5.7e-08
d
yr
n .2214814406462544 2.8372e-09 deg/d
Q 3.342151174690391 2.8542e-08 au
  Orbit Determination Parameters
   # obs. used (total)      124  
   data-arc span      5214 days (14.28 yr)  
   first obs. used      2003-09-15  
   last obs. used      2017-12-24  
   planetary ephem.      DE431  
   SB-pert. ephem.      SB431-N16  
   condition code      0  
   norm. resid. RMS      .62821  
   source      ORB  
   producer      Otto Matic  
   solution date      2019-Jul-13 17:45:37  

Additional Information
 Earth MOID = 1.08481 au 
 Jupiter MOID = 2.21452 au 
 T_jup = 3.302 
[ show covariance matrix ]

Ephemeris | Orbit Diagram | Orbital Elements | Mission Design | Physical Parameters | Discovery Circumstances ]

Physical Parameter Table
Parameter Symbol Value Units Sigma Reference Notes
absolute magnitude H 16.7   n/a MPO434168  

344665 (2003 SH106)          Discovered 2003-Sep-15 by NEAT at Palomar
Reference: 20121128/Numbers.arcLast Updated: 2012-12-03
Ephemeris | Orbit Diagram | Orbital Elements | Mission Design | Physical Parameters | Discovery Circumstances ]
ABOUT SSD CREDITS/AWARDS PRIVACY/COPYRIGHT GLOSSARY LINKS
FirstGov 2020-Aug-07 02:09 UT
(server date/time)  
NASA Home Page
Site Manager:   Ryan S. Park
Webmaster  Alan B. Chamberlin